Location: Jalan Sepang
(2.8072°N, 101.8021°E)
Time: 05:21:56
(UTC+00:00)

OAO 1 Rocket - Pass Details

Date: 15 May 2026
Orbit: 736 x 748 km, 35.0° (Epoch: 6 June)

Event Time Altitude Azimuth Distance (km) Brightness Sun altitude
Rises 12:19:26 0° 229° (SW) 3,176 8.1 -15.6°
Reaches altitude 10° 12:21:54 10° 226° (SW) 2,250 7.3 -16.2°
Maximum altitude 12:27:11 71° 142° (SE) 780 4.3 -17.4°
Enters shadow 12:30:56 19° 61° (ENE) 1,693 5.9 -18.3°
